ANA1293 RJTT-RKSS

Flight info

Callsign ANA1293
Flight time 1h 54m
Altitude 36000
Route BEKLA Y18 MIHOU Y38 SAPRA Y685 GUKDO
Aircraft B773/H-SDE3FGHIJ4J5M1RWXY/S

Departure

Time 2026-05-04 13:56
Airport Tokyo Haneda International Airport (RJTT)

Arrival

Time 2026-05-04 15:51
Airport Gimpo International Airport (RKSS)
Time Latitude Longitude Altitude Speed Heading
2026-05-04 13:05 35.54781 139.79213 32 ft 0 kts 330°
2026-05-04 13:05 35.54783 139.79212 32 ft 0 kts 330°
2026-05-04 13:45 35.54779 139.79214 19 ft 3 kts 330°
2026-05-04 13:46 35.54755 139.79231 30 ft 4 kts 329°
2026-05-04 13:46 35.54732 139.79244 31 ft 4 kts 357°
2026-05-04 13:46 35.54709 139.79237 32 ft 4 kts 39°
2026-05-04 13:46 35.54691 139.79213 32 ft 4 kts 58°
2026-05-04 13:47 35.54688 139.79205 32 ft 1 kts 60°
2026-05-04 13:50 35.54688 139.79206 32 ft 1 kts 60°
2026-05-04 13:51 35.54694 139.79219 32 ft 6 kts 59°
2026-05-04 13:51 35.54730 139.79295 33 ft 14 kts 59°
2026-05-04 13:51 35.54748 139.79364 33 ft 9 kts 94°
2026-05-04 13:51 35.54738 139.79474 32 ft 14 kts 81°
2026-05-04 13:52 35.54769 139.79689 30 ft 12 kts 149°
2026-05-04 13:52 35.54668 139.79762 29 ft 21 kts 149°
2026-05-04 13:52 35.54524 139.79866 28 ft 25 kts 150°
2026-05-04 13:53 35.54396 139.79957 27 ft 21 kts 150°
2026-05-04 13:53 35.54260 139.80054 29 ft 26 kts 150°
2026-05-04 13:53 35.54189 139.80118 26 ft 12 kts 114°
2026-05-04 13:54 35.54203 139.80177 28 ft 3 kts 63°
2026-05-04 13:54 35.54203 139.80178 28 ft 0 kts 63°
2026-05-04 13:55 35.54270 139.80288 32 ft 13 kts 23°
2026-05-04 13:55 35.54432 139.80189 33 ft 41 kts 327°
2026-05-04 13:56 35.54894 139.79858 34 ft 115 kts 330°
2026-05-04 13:56 35.55785 139.79267 216 ft 163 kts 330°
2026-05-04 13:56 35.57900 139.77939 1810 ft 174 kts 350°
2026-05-04 13:57 35.59165 139.78378 2341 ft 214 kts 28°
2026-05-04 13:57 35.60347 139.79619 3024 ft 225 kts 32°
2026-05-04 13:58 35.64274 139.83963 5209 ft 272 kts 33°
2026-05-04 13:58 35.67840 139.85327 6612 ft 279 kts
2026-05-04 13:58 35.69763 139.85557 7440 ft 276 kts 348°
2026-05-04 13:59 35.71539 139.84808 8258 ft 269 kts 322°
2026-05-04 13:59 35.73061 139.83455 9090 ft 274 kts 318°
2026-05-04 13:59 35.75623 139.80122 10633 ft 275 kts 287°
2026-05-04 14:00 35.76033 139.77737 10888 ft 299 kts 274°
2026-05-04 14:00 35.76566 139.72243 11863 ft 338 kts 277°
2026-05-04 14:00 35.77148 139.69412 12846 ft 344 kts 283°
2026-05-04 14:01 35.77887 139.66609 13936 ft 344 kts 284°
2026-05-04 14:01 35.78648 139.63800 14831 ft 347 kts 283°
2026-05-04 14:01 35.80143 139.58068 16669 ft 355 kts 282°
2026-05-04 14:02 35.80876 139.55155 17540 ft 359 kts 281°
2026-05-04 14:02 35.81614 139.52191 18339 ft 364 kts 281°
2026-05-04 14:02 35.82355 139.49205 19146 ft 365 kts 280°
2026-05-04 14:02 35.82929 139.46190 19969 ft 357 kts 270°
2026-05-04 14:03 35.82984 139.43151 20647 ft 356 kts 265°
2026-05-04 14:03 35.82987 139.40079 21394 ft 359 kts 265°
2026-05-04 14:03 35.83014 139.37001 22210 ft 360 kts 265°
2026-05-04 14:03 35.83052 139.33920 23008 ft 361 kts 265°
2026-05-04 14:04 35.83140 139.27696 24169 ft 366 kts 265°
2026-05-04 14:04 35.83186 139.24584 24658 ft 370 kts 265°
2026-05-04 14:04 35.83230 139.21402 25179 ft 374 kts 265°
2026-05-04 14:05 35.83263 139.14919 26209 ft 378 kts 262°
2026-05-04 14:05 35.83135 139.11685 26838 ft 378 kts 261°
2026-05-04 14:05 35.82954 139.08440 27391 ft 381 kts 261°
2026-05-04 14:06 35.82767 139.05173 27909 ft 383 kts 261°
2026-05-04 14:06 35.82587 139.01905 28466 ft 381 kts 261°
2026-05-04 14:06 35.82414 138.98626 28822 ft 387 kts 261°
2026-05-04 14:06 35.82240 138.95306 29155 ft 391 kts 261°
2026-05-04 14:07 35.82070 138.91941 29619 ft 393 kts 261°
2026-05-04 14:07 35.81903 138.88573 30094 ft 394 kts 260°
2026-05-04 14:07 35.81735 138.85202 30559 ft 393 kts 260°
2026-05-04 14:07 35.81569 138.81853 31057 ft 390 kts 260°
2026-05-04 14:08 35.81400 138.78529 31525 ft 388 kts 260°
2026-05-04 14:08 35.81231 138.75215 31939 ft 388 kts 259°
2026-05-04 14:08 35.81062 138.71902 32334 ft 387 kts 259°
2026-05-04 14:08 35.80884 138.68589 32634 ft 388 kts 259°
2026-05-04 14:09 35.80527 138.61935 33203 ft 391 kts 259°
2026-05-04 14:09 35.80363 138.58637 33522 ft 391 kts 259°
2026-05-04 14:10 35.80018 138.51967 34128 ft 390 kts 259°
2026-05-04 14:10 35.79841 138.48635 34384 ft 390 kts 259°
2026-05-04 14:10 35.79662 138.45307 34696 ft 389 kts 259°
2026-05-04 14:10 35.79483 138.41986 34989 ft 388 kts 259°
2026-05-04 14:11 35.79303 138.38671 35245 ft 388 kts 259°
2026-05-04 14:11 35.78941 138.32049 35772 ft 387 kts 259°
2026-05-04 14:11 35.78758 138.28732 35857 ft 390 kts 259°
2026-05-04 14:12 35.78385 138.22051 35960 ft 391 kts 259°
2026-05-04 14:13 35.77835 138.12148 35948 ft 382 kts 259°
2026-05-04 14:13 35.77460 138.05639 35955 ft 381 kts 259°
2026-05-04 14:14 35.77090 137.99144 35992 ft 380 kts 260°
2026-05-04 14:14 35.76523 137.89369 35968 ft 382 kts 260°
2026-05-04 14:15 35.75746 137.76227 35989 ft 388 kts 260°
2026-05-04 14:16 35.75034 137.66305 36004 ft 387 kts 259°
2026-05-04 14:17 35.74280 137.56457 36007 ft 384 kts 259°
2026-05-04 14:18 35.73426 137.46712 36013 ft 379 kts 256°
2026-05-04 14:19 35.71594 137.33899 35991 ft 382 kts 256°
2026-05-04 14:19 35.70671 137.27460 36006 ft 383 kts 256°
2026-05-04 14:20 35.69747 137.21003 36013 ft 384 kts 256°
2026-05-04 14:20 35.68817 137.14527 36016 ft 384 kts 256°
2026-05-04 14:21 35.67412 137.04799 36021 ft 385 kts 256°
2026-05-04 14:21 35.66472 136.98312 36019 ft 385 kts 256°
2026-05-04 14:22 35.65535 136.91875 36013 ft 384 kts 256°
2026-05-04 14:22 35.64595 136.85448 36027 ft 383 kts 256°
2026-05-04 14:23 35.63179 136.75769 36042 ft 384 kts 256°
2026-05-04 14:24 35.62240 136.69302 36019 ft 384 kts 255°
2026-05-04 14:24 35.61266 136.62835 36033 ft 386 kts 255°
2026-05-04 14:25 35.60295 136.56341 36020 ft 386 kts 255°
2026-05-04 14:25 35.58838 136.46610 36050 ft 387 kts 256°
2026-05-04 14:26 35.57869 136.40152 36034 ft 386 kts 256°
2026-05-04 14:26 35.56897 136.33699 36011 ft 382 kts 256°
2026-05-04 14:27 35.55929 136.27297 36050 ft 381 kts 256°
2026-05-04 14:27 35.54953 136.20886 36047 ft 383 kts 256°
2026-05-04 14:28 35.53969 136.14442 36065 ft 384 kts 256°
2026-05-04 14:28 35.52981 136.07977 36059 ft 385 kts 256°
2026-05-04 14:29 35.50996 135.95070 36053 ft 386 kts 256°
2026-05-04 14:30 35.50193 135.88538 36084 ft 390 kts 260°
2026-05-04 14:31 35.49904 135.78539 36078 ft 390 kts 263°
2026-05-04 14:32 35.49565 135.65270 36078 ft 388 kts 263°
2026-05-04 14:32 35.49386 135.58657 36088 ft 388 kts 263°
2026-05-04 14:33 35.49203 135.52081 36085 ft 387 kts 263°
2026-05-04 14:33 35.49017 135.45477 36113 ft 388 kts 263°
2026-05-04 14:34 35.48826 135.38856 36096 ft 388 kts 263°
2026-05-04 14:34 35.48632 135.32246 36094 ft 387 kts 263°
2026-05-04 14:35 35.48436 135.25652 36068 ft 386 kts 263°
2026-05-04 14:35 35.48236 135.19081 36093 ft 386 kts 263°
2026-05-04 14:36 35.48095 135.12491 36111 ft 388 kts 265°
2026-05-04 14:36 35.48257 135.06975 36097 ft 390 kts 266°
2026-05-04 14:37 35.48477 135.00313 36106 ft 391 kts 266°
2026-05-04 14:37 35.48691 134.93641 36095 ft 391 kts 266°
2026-05-04 14:38 35.48896 134.86967 36106 ft 391 kts 266°
2026-05-04 14:38 35.49094 134.80299 36108 ft 391 kts 266°
2026-05-04 14:39 35.49287 134.73675 36107 ft 391 kts 266°
2026-05-04 14:39 35.49479 134.66970 36112 ft 391 kts 266°
2026-05-04 14:40 35.49757 134.56962 36115 ft 391 kts 266°
2026-05-04 14:40 35.49937 134.50338 36092 ft 390 kts 265°
2026-05-04 14:41 35.50114 134.43704 36104 ft 389 kts 265°
2026-05-04 14:42 35.50456 134.30393 36109 ft 391 kts 265°
2026-05-04 14:42 35.50624 134.23722 36107 ft 391 kts 266°
2026-05-04 14:43 35.50786 134.17095 36105 ft 390 kts 266°
2026-05-04 14:43 35.50945 134.10442 36095 ft 389 kts 266°
2026-05-04 14:44 35.51099 134.03817 36117 ft 388 kts 265°
2026-05-04 14:44 35.51248 133.97189 36111 ft 388 kts 265°
2026-05-04 14:45 35.51395 133.90561 36121 ft 388 kts 265°
2026-05-04 14:45 35.51538 133.83939 36114 ft 388 kts 265°
2026-05-04 14:46 35.51677 133.77352 36124 ft 388 kts 266°
2026-05-04 14:46 35.51814 133.70727 36112 ft 388 kts 265°
2026-05-04 14:47 35.51947 133.64103 36093 ft 388 kts 265°
2026-05-04 14:47 35.52096 133.57487 36136 ft 388 kts 266°
2026-05-04 14:48 35.52252 133.50860 36124 ft 388 kts 266°
2026-05-04 14:48 35.52402 133.44236 36129 ft 388 kts 266°
2026-05-04 14:49 35.52548 133.37607 36138 ft 389 kts 265°
2026-05-04 14:49 35.52687 133.31018 36129 ft 389 kts 265°
2026-05-04 14:50 35.52820 133.24384 36130 ft 388 kts 265°
2026-05-04 14:50 35.52952 133.17754 36124 ft 388 kts 265°
2026-05-04 14:51 35.53089 133.11115 36113 ft 389 kts 266°
2026-05-04 14:51 35.53710 133.04466 36106 ft 395 kts 271°
2026-05-04 14:52 35.54563 132.97792 36115 ft 395 kts 271°
2026-05-04 14:52 35.55403 132.91120 36107 ft 396 kts 271°
2026-05-04 14:53 35.56236 132.84441 36106 ft 395 kts 271°
2026-05-04 14:53 35.57057 132.77810 36108 ft 395 kts 271°
2026-05-04 14:54 35.57880 132.71138 36109 ft 395 kts 271°
2026-05-04 14:54 35.58724 132.64479 36101 ft 394 kts 271°
2026-05-04 14:55 35.59602 132.57831 36117 ft 395 kts 272°
2026-05-04 14:55 35.60478 132.51170 36110 ft 395 kts 271°
2026-05-04 14:56 35.61348 132.44495 36109 ft 396 kts 271°
2026-05-04 14:56 35.62214 132.37803 36126 ft 397 kts 272°
2026-05-04 14:57 35.63078 132.31094 36114 ft 398 kts 272°
2026-05-04 14:57 35.63941 132.24365 36110 ft 399 kts 272°
2026-05-04 14:58 35.64801 132.17624 36122 ft 400 kts 272°
2026-05-04 14:58 35.65660 132.10856 36113 ft 402 kts 272°
2026-05-04 14:59 35.66520 132.04064 36097 ft 402 kts 272°
2026-05-04 15:00 35.67801 131.93873 36105 ft 402 kts 272°
2026-05-04 15:00 35.68651 131.87065 36111 ft 403 kts 272°
2026-05-04 15:01 35.69922 131.76838 36121 ft 404 kts 273°
2026-05-04 15:01 35.70767 131.69992 36110 ft 406 kts 273°
2026-05-04 15:02 35.71613 131.63110 36105 ft 407 kts 273°
2026-05-04 15:02 35.72457 131.56208 36121 ft 408 kts 273°
2026-05-04 15:03 35.73296 131.49321 36109 ft 410 kts 273°
2026-05-04 15:03 35.74137 131.42376 36090 ft 411 kts 273°
2026-05-04 15:04 35.74976 131.35419 36098 ft 410 kts 273°
2026-05-04 15:04 35.75810 131.28466 36110 ft 411 kts 274°
2026-05-04 15:05 35.76641 131.21493 36102 ft 412 kts 274°
2026-05-04 15:05 35.77470 131.14512 36103 ft 412 kts 273°
2026-05-04 15:06 35.78296 131.07521 36099 ft 413 kts 274°
2026-05-04 15:07 35.79531 130.96998 36110 ft 414 kts 274°
2026-05-04 15:07 35.80350 130.89972 36119 ft 415 kts 274°
2026-05-04 15:08 35.81168 130.82916 36105 ft 416 kts 274°
2026-05-04 15:08 35.81980 130.75895 36099 ft 416 kts 274°
2026-05-04 15:09 35.82813 130.68834 36100 ft 416 kts 274°
2026-05-04 15:09 35.83717 130.61791 36100 ft 416 kts 274°
2026-05-04 15:10 35.85073 130.51229 36104 ft 416 kts 274°
2026-05-04 15:11 35.86404 130.40662 36104 ft 416 kts 275°
2026-05-04 15:11 35.87289 130.33598 36106 ft 417 kts 275°
2026-05-04 15:12 35.88170 130.26516 36105 ft 418 kts 275°
2026-05-04 15:12 35.89049 130.19416 36110 ft 420 kts 275°
2026-05-04 15:13 35.89930 130.12278 36081 ft 421 kts 274°
2026-05-04 15:13 35.90802 130.05178 36100 ft 421 kts 274°
2026-05-04 15:14 35.91673 129.98029 36099 ft 422 kts 275°
2026-05-04 15:14 35.92544 129.90864 36104 ft 422 kts 275°
2026-05-04 15:15 35.93411 129.83693 36122 ft 423 kts 275°
2026-05-04 15:15 35.94272 129.76516 36113 ft 424 kts 275°
2026-05-04 15:16 35.95563 129.65708 36109 ft 425 kts 275°
2026-05-04 15:17 35.96848 129.54868 36120 ft 426 kts 275°
2026-05-04 15:17 35.98470 129.47843 36114 ft 433 kts 288°
2026-05-04 15:17 35.99707 129.44449 36114 ft 436 kts 291°
2026-05-04 15:18 36.02989 129.38100 36114 ft 442 kts 300°
2026-05-04 15:19 36.08420 129.28880 36119 ft 442 kts 300°
2026-05-04 15:19 36.13791 129.19607 36114 ft 442 kts 300°
2026-05-04 15:20 36.17351 129.13406 36115 ft 442 kts 300°
2026-05-04 15:20 36.20911 129.07194 36127 ft 442 kts 300°
2026-05-04 15:21 36.24448 129.01014 36111 ft 442 kts 300°
2026-05-04 15:22 36.29770 128.91692 36112 ft 441 kts 300°
2026-05-04 15:22 36.35082 128.82365 36115 ft 442 kts 300°
2026-05-04 15:23 36.38622 128.76136 36114 ft 442 kts 300°
2026-05-04 15:23 36.42168 128.69884 36109 ft 443 kts 300°
2026-05-04 15:24 36.49249 128.57360 36109 ft 443 kts 300°
2026-05-04 15:25 36.52790 128.51080 35624 ft 446 kts 300°
2026-05-04 15:25 36.54571 128.47913 34976 ft 446 kts 301°
2026-05-04 15:26 36.58133 128.41579 33204 ft 448 kts 301°
2026-05-04 15:26 36.59318 128.39469 32577 ft 449 kts 301°
2026-05-04 15:26 36.62903 128.33079 30743 ft 451 kts 302°
2026-05-04 15:27 36.64696 128.29904 30074 ft 446 kts 303°
2026-05-04 15:27 36.68264 128.23663 28621 ft 437 kts 303°
2026-05-04 15:28 36.71751 128.17546 27335 ft 429 kts 304°
2026-05-04 15:28 36.73468 128.14521 26691 ft 426 kts 304°
2026-05-04 15:28 36.76869 128.08527 25438 ft 421 kts 304°
2026-05-04 15:29 36.78558 128.05547 24819 ft 419 kts 304°
2026-05-04 15:30 36.85222 127.93764 22244 ft 414 kts 305°
2026-05-04 15:30 36.90138 127.85031 20447 ft 406 kts 305°
2026-05-04 15:31 36.93361 127.79297 19288 ft 401 kts 306°
2026-05-04 15:31 36.94962 127.76449 18715 ft 399 kts 306°
2026-05-04 15:32 36.99722 127.67981 16862 ft 393 kts 305°
2026-05-04 15:32 37.03374 127.63041 16168 ft 394 kts 330°
2026-05-04 15:33 37.08341 127.60231 16099 ft 390 kts 335°
2026-05-04 15:34 37.15657 127.55948 15902 ft 381 kts 332°
2026-05-04 15:34 37.17772 127.53977 15317 ft 381 kts 311°
2026-05-04 15:34 37.20698 127.48690 13433 ft 374 kts 304°
2026-05-04 15:35 37.23564 127.43480 13095 ft 349 kts 304°
2026-05-04 15:35 37.24936 127.41008 13110 ft 349 kts 304°
2026-05-04 15:35 37.26361 127.38441 13138 ft 367 kts 304°
2026-05-04 15:36 37.29319 127.33105 13134 ft 374 kts 304°
2026-05-04 15:36 37.30802 127.30428 13122 ft 373 kts 304°
2026-05-04 15:36 37.32282 127.27754 13097 ft 373 kts 304°
2026-05-04 15:37 37.33778 127.25046 12455 ft 380 kts 304°
2026-05-04 15:37 37.35277 127.22333 12139 ft 372 kts 304°
2026-05-04 15:37 37.36532 127.19606 11875 ft 353 kts 290°
2026-05-04 15:37 37.37077 127.16684 11571 ft 338 kts 281°
2026-05-04 15:38 37.37543 127.13808 11264 ft 332 kts 282°
2026-05-04 15:38 37.38043 127.10999 10953 ft 327 kts 283°
2026-05-04 15:38 37.38541 127.08270 10664 ft 322 kts 283°
2026-05-04 15:38 37.39040 127.05550 10370 ft 317 kts 283°
2026-05-04 15:39 37.39531 127.02869 10086 ft 312 kts 283°
2026-05-04 15:39 37.40014 127.00235 9880 ft 304 kts 283°
2026-05-04 15:39 37.40921 126.95257 9359 ft 272 kts 283°
2026-05-04 15:40 37.41333 126.93018 9008 ft 259 kts 284°
2026-05-04 15:40 37.41938 126.90894 8862 ft 263 kts 294°
2026-05-04 15:40 37.42725 126.88767 8677 ft 270 kts 295°
2026-05-04 15:40 37.43515 126.86632 8496 ft 268 kts 294°
2026-05-04 15:41 37.44278 126.84514 8318 ft 264 kts 294°
2026-05-04 15:41 37.45018 126.82426 8147 ft 259 kts 294°
2026-05-04 15:41 37.45743 126.80370 7980 ft 256 kts 293°
2026-05-04 15:41 37.46382 126.78285 7782 ft 255 kts 289°
2026-05-04 15:42 37.46960 126.76175 7583 ft 255 kts 289°
2026-05-04 15:42 37.47540 126.74066 7381 ft 255 kts 289°
2026-05-04 15:42 37.48126 126.71960 7182 ft 255 kts 289°
2026-05-04 15:42 37.48701 126.69845 6968 ft 254 kts 285°
2026-05-04 15:43 37.49027 126.67652 6744 ft 256 kts 277°
2026-05-04 15:43 37.49242 126.65423 6507 ft 257 kts 277°
2026-05-04 15:43 37.49466 126.63183 6261 ft 258 kts 277°
2026-05-04 15:43 37.49707 126.60955 6005 ft 252 kts 281°
2026-05-04 15:44 37.50387 126.58980 5756 ft 247 kts 308°
2026-05-04 15:44 37.51582 126.57457 5559 ft 246 kts 314°
2026-05-04 15:44 37.52799 126.55943 5347 ft 252 kts 314°
2026-05-04 15:44 37.54045 126.54377 5114 ft 253 kts 314°
2026-05-04 15:45 37.55397 126.53007 4845 ft 250 kts 334°
2026-05-04 15:45 37.57100 126.52619 4620 ft 253 kts
2026-05-04 15:45 37.58774 126.53266 4433 ft 253 kts 26°
2026-05-04 15:45 37.60125 126.54648 4169 ft 248 kts 43°
2026-05-04 15:46 37.61319 126.56191 3929 ft 244 kts 43°
2026-05-04 15:46 37.62502 126.57698 3695 ft 239 kts 43°
2026-05-04 15:46 37.63663 126.59168 3486 ft 234 kts 42°
2026-05-04 15:46 37.64806 126.60611 3262 ft 229 kts 42°
2026-05-04 15:47 37.65922 126.62013 3028 ft 223 kts 42°
2026-05-04 15:47 37.66915 126.63454 2843 ft 213 kts 62°
2026-05-04 15:47 37.67062 126.65209 2632 ft 200 kts 112°
2026-05-04 15:47 37.66203 126.66519 2477 ft 193 kts 144°
2026-05-04 15:48 37.65235 126.67613 2205 ft 181 kts 140°
2026-05-04 15:48 37.64373 126.68683 1950 ft 166 kts 139°
2026-05-04 15:48 37.62781 126.70668 1639 ft 160 kts 139°
2026-05-04 15:49 37.61999 126.71646 1488 ft 156 kts 139°
2026-05-04 15:49 37.61237 126.72598 1425 ft 154 kts 139°
2026-05-04 15:49 37.60482 126.73548 1346 ft 159 kts 138°
2026-05-04 15:49 37.59703 126.74550 973 ft 157 kts 137°
2026-05-04 15:50 37.58965 126.75477 652 ft 144 kts 136°
2026-05-04 15:50 37.58281 126.76346 361 ft 133 kts 135°
2026-05-04 15:50 37.57592 126.77209 239 ft 142 kts 137°
2026-05-04 15:50 37.56871 126.78079 98 ft 145 kts 136°
2026-05-04 15:51 37.56203 126.78916 63 ft 119 kts 135°
2026-05-04 15:51 37.55731 126.79509 64 ft 63 kts 135°
2026-05-04 15:51 37.55501 126.79818 60 ft 43 kts 122°
2026-05-04 15:51 37.55428 126.80071 65 ft 17 kts 72°
2026-05-04 15:52 37.55534 126.80058 62 ft 22 kts 315°
2026-05-04 15:52 37.55662 126.79898 61 ft 28 kts 315°
2026-05-04 15:52 37.55820 126.79699 61 ft 36 kts 315°
2026-05-04 15:52 37.55973 126.79492 63 ft 27 kts 314°
2026-05-04 15:53 37.56116 126.79312 64 ft 29 kts 316°
2026-05-04 15:53 37.56220 126.79189 65 ft 18 kts 317°
2026-05-04 15:53 37.56323 126.79182 63 ft 18 kts 48°
2026-05-04 15:53 37.56435 126.79329 61 ft 28 kts 46°
2026-05-04 15:54 37.56581 126.79514 64 ft 29 kts 44°
2026-05-04 15:54 37.56734 126.79700 66 ft 23 kts 44°
2026-05-04 15:54 37.56840 126.79838 65 ft 22 kts 46°
2026-05-04 15:54 37.56945 126.79980 65 ft 20 kts 62°
2026-05-04 15:55 37.56903 126.80076 62 ft 14 kts 137°
2026-05-04 15:55 37.56830 126.80083 67 ft 11 kts 213°
2026-05-04 15:55 37.56761 126.80106 62 ft 6 kts 140°
2026-05-04 15:55 37.56744 126.80125 62 ft 1 kts 136°
2026-05-04 15:56 37.56743 126.80127 62 ft 0 kts 136°